Regional Weather Roundup
Issued by NWS Cleveland, OH

Home | Current Version | Previous Version | Text Only | Print | Product List | Glossary Off
Versions: 1 2 3 4 5 6 7 8 9 10 11 12 13 14 15 16 17 18 19 20 21 22 23 24 25 26 27 28 29 30 31 32 33 34 35 36 37 38 39 40 41 42 43 44 45 46 47 48 49 50

000
ASUS41 KCLE 260710
RWRCLE
OHIO REGIONAL WEATHER ROUNDUP
NATIONAL WEATHER SERVICE WILMINGTON, OH
200 AM EST SUN FEB 26 2017

NOTE: "FAIR" INDICATES FEW OR NO CLOUDS BELOW 12,000 FEET WITH NO
SIGNIFICANT WEATHER AND/OR OBSTRUCTIONS TO VISIBILITY.

OHZ001>008-015>018-024>027-034-035-043-044-260800-
   NORTHWEST OHIO

CITY           SKY/WX    TMP DP  RH WIND       PRES   REMARKS
DEFIANCE       CLOUDY    25  16  68 VRB7      30.05R WCI  17
FINDLAY        CLOUDY    27  16  63 NW9       30.03R WCI  18
TOLEDO EXPRESS CLOUDY    24  17  74 W9        30.03R WCI  14
TOLEDO EXEC    CLOUDY    26  16  65 W9        30.05R WCI  17
LIMA           FLURRIES  26  20  77 NW9       30.04R WCI  17
$$

OHZ009>014-019>023-028>033-038-089-260800-
   NORTHEAST OHIO

CITY           SKY/WX    TMP DP  RH WIND       PRES   REMARKS
CLE-HOPKINS    FLURRIES  27  17  66 W14       30.03R WCI  16
CLE-LAKEFRONT  FLURRIES  27  19  72 W18       30.00R WCI  14
CUY CO. ARPT   NOT AVBL
LORAIN-ELYRIA  CLOUDY    25  15  66 W8        30.02R WCI  16
ASHTABULA      LGT SNOW  25  21  85 W12       29.97R FOG     WCI  14
AKRON-CANTON   FLURRIES  27  17  66 W8        29.99R WCI  19
WOOSTER        CLOUDY    26  17  68 W12       30.01R WCI  16
MANSFIELD      FLURRIES  25  17  72 W9        30.00R WCI  15
YOUNGSTOWN     FLURRIES  26  16  65 W16       29.96R WCI  14
$$

OHZ042-051>053-060>062-070>072-077>081-260800-
  SOUTHWEST OHIO

CITY           SKY/WX    TMP DP  RH WIND       PRES   REMARKS
CINC-COVINGTON FAIR      25  17  72 W7        30.09R WCI  17
CINC-LUNKEN    FAIR      28  18  66 W9        30.12R WCI  19
HAMILTON       FAIR      27  18  69 W6        30.10R WCI  20
DAYTON         MOCLDY    26  17  68 W12       30.06R WCI  16
WRIGHT-PAT AFB MOCLDY    28  17  63 W12       30.06R WCI  18
DAYTON GENERAL CLOUDY    27  18  69 W8        30.06R WCI  19
WILMINGTON     FAIR      26  17  68 W8        30.05R WCI  18
$$

OHZ036-037-039>041-045>050-054>059-063>069-073>076-082>088-260800-
  CENTRAL AND SOUTHEAST OHIO

CITY           SKY/WX    TMP DP  RH WIND       PRES   REMARKS
COLUMBUS       FLURRIES  31  18  58 W9        30.04S WCI  23
OSU AIRPORT    CLOUDY    29  15  56 W14G21    30.04S WCI  18
BOLTON FIELD   CLOUDY    30  17  60 W7        30.05S WCI  23
RICKENBACK AFB CLOUDY    30  18  60 W14       30.05S WCI  20
NEWARK         CLOUDY    30  17  58 W12       30.04R WCI  20
MARION         CLOUDY    27  18  69 NW8       30.03R WCI  19
LANCASTER      CLOUDY    32  21  64 W3        30.05R
ZANESVILLE     CLOUDY    30  19  63 W7        30.04R WCI  23
NEW PHILLY     CLOUDY    28  20  71 W5        30.03R WCI  23
$$



USA.gov is the U.S. government's official web portal to all federal, state and local government web resources and services.